[[{"header":{"parameterUnit":"m.s-1","parameterCategory":1,"la1":30.2991,"la2":30.254,"lo1":-89.0895,"lo2":-89.0444,"dy":0.0017,"dx":0.0017,"nx":28,"ny":28,"refTime":"2023-11-03T21:00:00:Z","depth":0,"parameterNumber":2,"parameterNumberName":"U-component_of_WINDS"},"data":[0,0,0,0,0,0,0,0,0,0,0,0,0,0,0,0,0,0,0,0,0,0,0,0,0,0,0,0,0,0,0,0,0,0,0,0,0,0,0,0,0,0,0,0,0,0,0,0,0,0,0,0,0,0,0,0,0,0,-1.0899,-1.0899,0,-1.0935,-1.0936,-1.0936,-1.0913,-1.0912,-1.0911,-1.091,-1.0948,-1.095,-1.0952,0,0,0,0,0,0,0,0,0,0,0,0,0,-1.0809,-1.0811,-1.0898,-1.0899,-1.0899,-1.0935,-1.0936,-1.0936,-1.0913,-1.0912,-1.091,-1.0909,-1.0947,-1.095,-1.0952,0,0,0,0,0,0,0,0,0,0,0,0,0,-1.0847,-1.0812,-1.0898,-1.0892,-1.0892,-1.0935,-1.0936,-1.0936,-1.0913,-1.0912,-1.091,-1.0909,-1.0946,-1.0949,-1.0952,-1.1004,0,0,-1.0962,-1.0963,0,0,0,0,0,0,0,0,-1.0845,-1.0851,-1.0893,-1.0893,-1.0893,-1.0918,-1.0918,-1.0959,-1.0914,-1.0905,-1.091,-1.0908,-1.0939,-1.0943,-1.0953,-1.1006,-1.1007,-1.0962,-1.0964,-1.0965,-1.0966,0,0,0,0,0,0,0,-1.0843,-1.0849,-1.0913,-1.0893,-1.0893,-1.0888,-1.0892,-1.0926,-1.0931,-1.0906,-1.0904,-1.0909,-1.0939,-1.095,-1.0954,-1.1008,-1.0962,-1.0965,-1.0966,-1.0968,-1.1107,-1.1108,0,0,0,0,0,0,-1.084,-1.0847,-1.0912,-1.0914,-1.0864,-1.0891,-1.0895,-1.0911,-1.0931,-1.0932,-1.091,-1.0908,-1.0946,-1.095,-1.0955,-1.1019,-1.0965,-1.0968,-1.097,-1.1105,-1.1107,-1.1109,0,0,0,0,0,0,-1.0839,-1.0846,-1.091,-1.088,-1.0888,-1.0894,-1.0913,-1.0913,-1.0924,-1.0934,-1.0935,-1.0921,-1.0945,-1.0951,-1.0992,-1.102,-1.0969,-1.0972,-1.1103,-1.1105,-1.1108,-1.1145,0,0,0,0,0,0,-1.0836,-1.0846,-1.0865,-1.0881,-1.089,-1.0947,-1.0914,-1.0915,-1.093,-1.0927,-1.0944,-1.0946,-1.0944,-1.0988,-1.0995,-1.1023,-1.0974,-1.11,-1.1104,-1.1107,-1.1141,-1.1149,-1.1155,0,0,0,0,0,-1.0833,-1.0874,-1.0866,-1.0874,-1.0914,-1.0948,-1.0953,-1.0951,-1.0932,-1.0952,-1.0958,-1.0945,-1.1015,-1.0992,-1.1001,-1.1029,-1.1099,-1.1103,-1.1107,-1.1138,-1.1147,-1.1155,0,0,0,0,0,0,-1.0861,-1.0875,-1.0867,-1.0914,-1.093,-1.0944,-1.0969,-1.096,-1.0982,-1.0978,-1.0974,-1.0978,-1.1022,-1.1029,-1.1004,-1.1081,-1.1054,-1.106,-1.1075,-1.1084,-1.109,-1.1088,-1.0977,0,0,0,0,0,-1.0872,-1.0899,-1.091,-1.095,-1.0959,-1.0963,-1.0978,-1.0974,-1.0991,-1.0997,-1.1007,-1.1023,-1.1049,-1.1066,-1.1091,-1.1142,-1.1146,-1.1166,-1.1172,-1.1178,-1.1184,-1.1214,-1.1223,-1.1123,-1.1123,-1.1123,0,0,-1.0896,-1.0908,-1.0925,-1.0956,-1.0968,-1.0997,-1.0969,-1.0999,-1.1021,-1.1002,-1.1043,-1.105,-1.1068,-1.1115,-1.1137,-1.1123,-1.1212,-1.1183,-1.1188,-1.1191,-1.1219,-1.1228,-1.1237,-1.1126,-1.1125,-1.1125,0,0,-1.0956,-1.0966,-1.1002,-1.1015,-1.1033,-1.1036,-1.1044,-1.106,-1.1065,-1.1105,-1.1092,-1.1118,-1.1162,-1.1176,-1.1189,-1.1255,-1.1245,-1.1263,-1.1299,-1.1328,-1.1336,-1.1343,-1.1369,-1.1378,-1.1268,-1.1269,-1.1269,0,-1.0983,-1.1026,-1.1021,-1.1054,-1.1069,-1.1053,-1.109,-1.1103,-1.1129,-1.114,-1.1124,-1.1181,-1.1192,-1.1243,-1.1259,-1.127,-1.1281,-1.1262,-1.1335,-1.1342,-1.1349,-1.1373,-1.1383,-1.1271,-1.1271,-1.127,-1.127,0,-1.106,-1.1089,-1.1116,-1.1142,-1.116,-1.1194,-1.1196,-1.1215,-1.121,-1.1214,-1.1257,-1.1269,-1.1297,-1.1309,-1.1304,-1.136,-1.1351,-1.1335,-1.1308,-1.1361,-1.1384,-1.1393,-1.1274,-1.1273,-1.1273,-1.1272,0,0,-1.1138,-1.1162,-1.1172,-1.1185,-1.1204,-1.1228,-1.1262,-1.1289,-1.1306,-1.1324,-1.1354,-1.1392,-1.1378,-1.1393,-1.139,-1.1415,-1.1469,-1.1397,-1.1397,-1.1412,-1.1535,-1.1548,-1.1559,-1.1462,-1.1464,-1.1465,-1.1534,0,-1.12,-1.126,-1.1258,-1.1314,-1.1342,-1.1329,-1.1359,-1.1375,-1.138,-1.1405,-1.141,-1.1439,-1.1417,-1.1426,-1.145,-1.1458,-1.1494,-1.1452,-1.1491,-1.1493,-1.1489,-1.157,-1.1584,-1.1649,-1.1543,-1.1544,-1.1545,0,-1.128,-1.1302,-1.1362,-1.1379,-1.1391,-1.1418,-1.1444,-1.1468,-1.1486,-1.1488,-1.1505,-1.1499,-1.1534,-1.1505,-1.1555,-1.1527,-1.1542,-1.1548,-1.1551,-1.1556,-1.1523,-1.158,-1.1669,-1.1679,-1.1559,-1.1558,-1.1557,0,-1.1334,-1.1378,-1.142,-1.1431,-1.1452,-1.1472,-1.1481,-1.1498,-1.1515,-1.1537,-1.1549,-1.1575,-1.159,-1.161,-1.1611,-1.1589,-1.1663,-1.1633,-1.1667,-1.1667,-1.1685,-1.1684,-1.178,-1.1691,-1.1691,-1.1691,-1.1691,0,-1.1405,-1.1442,-1.1445,-1.1471,-1.1513,-1.151,-1.1552,-1.156,-1.1575,-1.1603,-1.1592,-1.1618,-1.1617,-1.1644,-1.1644,-1.1687,-1.1693,-1.1697,-1.1697,-1.1699,-1.1699,-1.1711,-1.1707,-1.1693,-1.1693,-1.1692,-1.1692,0,-1.1473,-1.1476,-1.1521,-1.1537,-1.1542,-1.1573,-1.1587,-1.1613,-1.1617,-1.1652,-1.166,-1.1667,-1.1699,-1.1701,-1.1737,-1.1738,-1.1791,-1.1785,-1.1785,-1.1785,-1.1819,-1.1817,-1.1928,-1.1943,-1.1843,-1.1844,-1.1844,0,-1.1519,-1.1547,-1.1567,-1.1585,-1.1596,-1.1625,-1.1643,-1.1641,-1.166,-1.1684,-1.1707,-1.1737,-1.1762,-1.1813,-1.1822,-1.185,-1.1846,-1.1883,-1.185,-1.1852,-1.1849,-1.1849,-1.1853,-1.189,-1.1891,-1.1892,-1.1893,0,-1.1601,-1.1601,-1.1627,-1.1654,-1.1676,-1.1697,-1.1717,-1.1732,-1.1733,-1.1755,-1.1787,-1.1806,-1.1844,-1.1875,-1.1903,-1.1913,-1.1904,-1.1902,-1.1912,-1.1916,-1.1916,-1.1919,-1.1805,-1.19,-1.19,-1.1899,-1.1899,-1.1898,-1.1661,-1.1686,-1.1705,-1.1735,-1.175,-1.1769,-1.1794,-1.1802,-1.1828,-1.1859,-1.1856,-1.1893,-1.1912,-1.1948,-1.1961,-1.199,-1.1978,-1.1991,-1.1995,-1.1999,-1.2004,-1.1909,-1.1995,-1.1994,-1.1994,-1.1994,-1.1994,0,-1.1744,-1.1756,-1.1783,-1.1812,-1.1835,-1.1824,-1.1845,-1.1866,-1.1899,-1.1917,-1.1941,-1.198,-1.201,-1.2021,-1.2051,-1.2072,-1.2069,-1.2081,-1.208,-1.2083,-1.2012,-1.2002,-1.2083,-1.2083,-1.2083,-1.2083,-1.2083,-1.2083,-1.1791,-1.1834,-1.1837,-1.1889,-1.19,-1.1936,-1.1949,-1.1967,-1.1982,-1.2025,-1.2051,-1.2058,-1.2074,-1.2105,-1.2133,-1.2135,-1.2148,-1.2162,-1.2163,-1.2097,-1.2088,-1.2079,-1.207,-1.2164,-1.2164,-1.2232,-1.2233,-1.2233]},{"header":{"parameterUnit":"m.s-1","parameterCategory":1,"la1":30.2991,"la2":30.254,"lo1":-89.0895,"lo2":-89.0444,"dy":0.0017,"dx":0.0017,"nx":28,"ny":28,"refTime":"2023-11-03T21:00:00:Z","depth":0,"parameterNumber":3,"parameterNumberName":"V-component_of_WINDS"},"data":[0,0,0,0,0,0,0,0,0,0,0,0,0,0,0,0,0,0,0,0,0,0,0,0,0,0,0,0,0,0,0,0,0,0,0,0,0,0,0,0,0,0,0,0,0,0,0,0,0,0,0,0,0,0,0,0,0,0,-2.4591,-2.4591,0,-2.4595,-2.4595,-2.4595,-2.4542,-2.4541,-2.454,-2.4538,-2.4541,-2.4542,-2.4543,0,0,0,0,0,0,0,0,0,0,0,0,0,-2.4538,-2.4539,-2.4591,-2.4591,-2.4591,-2.4595,-2.4595,-2.4595,-2.4543,-2.4541,-2.4539,-2.4538,-2.454,-2.4542,-2.4543,0,0,0,0,0,0,0,0,0,0,0,0,0,-2.4553,-2.4539,-2.4591,-2.4566,-2.4564,-2.4595,-2.4595,-2.4595,-2.4543,-2.4541,-2.4539,-2.4537,-2.454,-2.4542,-2.4544,-2.4599,0,0,-2.455,-2.4551,0,0,0,0,0,0,0,0,-2.4552,-2.4555,-2.4569,-2.4568,-2.4565,-2.4566,-2.4577,-2.4596,-2.4544,-2.4551,-2.4538,-2.4536,-2.4551,-2.4552,-2.4557,-2.4599,-2.4599,-2.455,-2.4551,-2.4552,-2.4553,0,0,0,0,0,0,0,-2.4551,-2.4555,-2.4593,-2.457,-2.4567,-2.4554,-2.4554,-2.458,-2.4563,-2.455,-2.4546,-2.4547,-2.4549,-2.4555,-2.4557,-2.4599,-2.455,-2.4552,-2.4553,-2.4554,-2.4689,-2.4691,0,0,0,0,0,0,-2.4554,-2.4554,-2.4593,-2.4593,-2.4553,-2.4556,-2.4556,-2.4568,-2.4562,-2.4559,-2.4549,-2.4545,-2.4553,-2.4554,-2.4557,-2.4622,-2.4552,-2.4554,-2.4555,-2.4686,-2.4689,-2.4692,0,0,0,0,0,0,-2.4553,-2.4558,-2.4592,-2.4572,-2.4576,-2.456,-2.4573,-2.4569,-2.4575,-2.4562,-2.4558,-2.4559,-2.4551,-2.4554,-2.4589,-2.4622,-2.4555,-2.4557,-2.4684,-2.4687,-2.469,-2.4754,0,0,0,0,0,0,-2.4552,-2.4558,-2.4579,-2.4573,-2.4577,-2.4626,-2.4575,-2.4571,-2.4579,-2.4574,-2.457,-2.4567,-2.455,-2.4587,-2.4591,-2.4623,-2.4559,-2.4681,-2.4685,-2.4689,-2.4749,-2.4759,-2.4768,0,0,0,0,0,-2.455,-2.4596,-2.458,-2.4585,-2.4603,-2.4628,-2.463,-2.4609,-2.4582,-2.4603,-2.4594,-2.4567,-2.4617,-2.4591,-2.4596,-2.4629,-2.4678,-2.4684,-2.4689,-2.4745,-2.4757,-2.4768,0,0,0,0,0,0,-2.4605,-2.4595,-2.4577,-2.4623,-2.4627,-2.4619,-2.4645,-2.4623,-2.4634,-2.4628,-2.4601,-2.4601,-2.4641,-2.4638,-2.4609,-2.4683,-2.4643,-2.4649,-2.4684,-2.4695,-2.4705,-2.4705,-2.456,0,0,0,0,0,-2.4623,-2.4644,-2.4634,-2.4675,-2.4678,-2.4661,-2.4671,-2.4655,-2.4657,-2.4658,-2.4652,-2.4655,-2.4672,-2.4683,-2.4697,-2.4748,-2.4747,-2.4773,-2.4783,-2.479,-2.4797,-2.4824,-2.4836,-2.4709,-2.4709,-2.4709,0,0,-2.466,-2.4657,-2.4671,-2.4686,-2.4687,-2.471,-2.4663,-2.4688,-2.4704,-2.4662,-2.4696,-2.4692,-2.4693,-2.4737,-2.4756,-2.4736,-2.4832,-2.4797,-2.4804,-2.4806,-2.4831,-2.4843,-2.4854,-2.4712,-2.4712,-2.4711,0,0,-2.4738,-2.4737,-2.4773,-2.4775,-2.4777,-2.4766,-2.4774,-2.477,-2.4766,-2.4799,-2.4768,-2.4787,-2.4815,-2.4818,-2.4823,-2.4904,-2.4879,-2.4909,-2.4959,-2.4987,-2.4997,-2.5005,-2.5035,-2.5046,-2.4915,-2.4915,-2.4915,0,-2.4783,-2.4816,-2.4793,-2.4821,-2.4829,-2.4792,-2.4828,-2.4831,-2.4837,-2.4844,-2.4821,-2.4857,-2.4855,-2.4899,-2.4919,-2.4924,-2.4933,-2.491,-2.4997,-2.5006,-2.5014,-2.5042,-2.5053,-2.4919,-2.4918,-2.4918,-2.4918,0,-2.4872,-2.4896,-2.4924,-2.4932,-2.4943,-2.4974,-2.4956,-2.497,-2.4953,-2.4944,-2.4979,-2.4976,-2.4989,-2.4998,-2.4981,-2.5041,-2.5028,-2.5002,-2.4961,-2.503,-2.5056,-2.5067,-2.4924,-2.4923,-2.4922,-2.4921,0,0,-2.4986,-2.4982,-2.4993,-2.4997,-2.4997,-2.5015,-2.5044,-2.5058,-2.5071,-2.5076,-2.5102,-2.5127,-2.5103,-2.5108,-2.5091,-2.5115,-2.5181,-2.5086,-2.5085,-2.5105,-2.5247,-2.5269,-2.5282,-2.5164,-2.5166,-2.5168,-2.5248,0,-2.5064,-2.5116,-2.5096,-2.515,-2.5171,-2.5137,-2.5163,-2.5166,-2.5158,-2.5175,-2.5166,-2.5185,-2.5151,-2.5155,-2.5176,-2.5168,-2.5209,-2.5162,-2.5188,-2.5189,-2.519,-2.5295,-2.5317,-2.5394,-2.5258,-2.5259,-2.5261,0,-2.5161,-2.5173,-2.5228,-2.5226,-2.5234,-2.5258,-2.527,-2.5286,-2.5289,-2.5282,-2.5289,-2.5267,-2.5296,-2.5255,-2.5295,-2.5263,-2.5272,-2.527,-2.5272,-2.5275,-2.523,-2.5302,-2.5417,-2.5429,-2.5276,-2.5275,-2.5274,0,-2.5241,-2.527,-2.5307,-2.5311,-2.5308,-2.5326,-2.5326,-2.5326,-2.5336,-2.5346,-2.5353,-2.5365,-2.5373,-2.5383,-2.5365,-2.5337,-2.5408,-2.5365,-2.5404,-2.5405,-2.5422,-2.5421,-2.5541,-2.5425,-2.5425,-2.5425,-2.5425,0,-2.5331,-2.5367,-2.5343,-2.5366,-2.5406,-2.5382,-2.5422,-2.5417,-2.5418,-2.544,-2.541,-2.543,-2.5405,-2.5423,-2.5409,-2.5445,-2.5448,-2.5444,-2.544,-2.5447,-2.5448,-2.5454,-2.5449,-2.5428,-2.5427,-2.5426,-2.5426,0,-2.5427,-2.5412,-2.5451,-2.5446,-2.5445,-2.5475,-2.547,-2.5491,-2.5481,-2.5509,-2.5514,-2.5499,-2.5519,-2.5502,-2.5521,-2.5512,-2.556,-2.5548,-2.556,-2.5557,-2.5597,-2.5594,-2.5727,-2.5743,-2.5615,-2.5616,-2.5617,0,-2.5486,-2.5513,-2.5511,-2.5524,-2.5526,-2.5546,-2.5557,-2.5535,-2.5547,-2.5552,-2.5573,-2.559,-2.5604,-2.5637,-2.5628,-2.5643,-2.5631,-2.5677,-2.5633,-2.5641,-2.5634,-2.5633,-2.5637,-2.5686,-2.5688,-2.5689,-2.569,0,-2.5593,-2.5584,-2.5601,-2.5616,-2.5629,-2.5639,-2.5647,-2.5658,-2.5636,-2.5651,-2.5672,-2.5682,-2.5702,-2.5721,-2.5732,-2.5731,-2.5708,-2.5703,-2.5713,-2.5722,-2.5729,-2.5727,-2.5586,-2.5701,-2.57,-2.5699,-2.5698,-2.5698,-2.5673,-2.5696,-2.5699,-2.5718,-2.5722,-2.573,-2.575,-2.5743,-2.576,-2.5776,-2.5761,-2.5787,-2.5789,-2.5802,-2.5804,-2.5824,-2.5805,-2.5819,-2.5823,-2.5827,-2.5834,-2.5724,-2.5825,-2.5825,-2.5825,-2.5824,-2.5824,0,-2.578,-2.578,-2.5798,-2.581,-2.5826,-2.5802,-2.5809,-2.5824,-2.5847,-2.5851,-2.5865,-2.5889,-2.5907,-2.5899,-2.5915,-2.5932,-2.5921,-2.5937,-2.5936,-2.5937,-2.5849,-2.5839,-2.5945,-2.5945,-2.5945,-2.5945,-2.5945,-2.5945,-2.5837,-2.5876,-2.5868,-2.5907,-2.5907,-2.5932,-2.5939,-2.5946,-2.5949,-2.5978,-2.5993,-2.5988,-2.5987,-2.6003,-2.6018,-2.6015,-2.6023,-2.6043,-2.6036,-2.5954,-2.5943,-2.5931,-2.5923,-2.6044,-2.6044,-2.6123,-2.6124,-2.6124]}]]